TimeMST,TemperatureF,Dew PointF,Humidity,Sea Level PressureIn,VisibilityMPH,Wind Direction,Wind SpeedMPH,Gust SpeedMPH,PrecipitationIn,Events,Conditions,WindDirDegrees,DateUTC
12:15 AM,30.4,6.1,36,29.78,10.0,West,4.6,-,N/A,,Scattered Clouds,280,2013-02-18 07:15:00
12:35 AM,29.3,8.2,41,29.78,10.0,West,9.2,-,N/A,,Mostly Cloudy,280,2013-02-18 07:35:00
12:55 AM,27.3,8.2,45,29.78,10.0,WNW,4.6,-,N/A,,Scattered Clouds,300,2013-02-18 07:55:00
1:15 AM,24.3,7.9,50,29.78,10.0,West,8.1,-,N/A,,Scattered Clouds,270,2013-02-18 08:15:00
1:35 AM,27.1,7.3,43,29.78,10.0,WSW,6.9,17.3,N/A,,Scattered Clouds,250,2013-02-18 08:35:00
1:55 AM,26.6,8.2,46,29.78,10.0,West,12.7,17.3,N/A,,Mostly Cloudy,270,2013-02-18 08:55:00
2:15 AM,27.7,8.8,45,29.77,10.0,WSW,11.5,-,N/A,,Mostly Cloudy,250,2013-02-18 09:15:00
2:35 AM,27.5,7.7,43,29.76,10.0,West,10.4,-,N/A,,Scattered Clouds,280,2013-02-18 09:35:00
2:55 AM,28.2,8.6,44,29.75,10.0,West,21.9,-,N/A,,Scattered Clouds,260,2013-02-18 09:55:00
3:15 AM,28.0,9.0,45,29.75,10.0,West,18.4,27.6,N/A,,Clear,270,2013-02-18 10:15:00
3:35 AM,27.7,8.6,45,29.76,10.0,West,18.4,28.8,N/A,,Clear,280,2013-02-18 10:35:00
3:55 AM,27.0,8.6,46,29.76,10.0,WNW,13.8,26.5,N/A,,Clear,290,2013-02-18 10:55:00
4:15 AM,26.1,8.6,48,29.77,10.0,West,13.8,20.7,N/A,,Clear,280,2013-02-18 11:15:00
4:35 AM,25.9,8.6,48,29.77,10.0,WNW,10.4,23.0,N/A,,Clear,290,2013-02-18 11:35:00
4:55 AM,25.3,8.8,50,29.78,10.0,NW,8.1,20.7,N/A,,Clear,310,2013-02-18 11:55:00
5:15 AM,25.5,9.7,51,29.79,10.0,Calm,Calm,-,N/A,,Scattered Clouds,0,2013-02-18 12:15:00
5:35 AM,26.2,9.7,50,29.82,10.0,WNW,9.2,20.7,N/A,,Scattered Clouds,290,2013-02-18 12:35:00
5:55 AM,25.3,8.4,49,29.82,10.0,West,18.4,28.8,N/A,,Scattered Clouds,270,2013-02-18 12:55:00
6:15 AM,24.6,7.7,49,29.84,10.0,West,12.7,19.6,N/A,,Clear,270,2013-02-18 13:15:00
6:35 AM,23.9,6.6,48,29.85,10.0,West,12.7,23.0,N/A,,Clear,280,2013-02-18 13:35:00
6:55 AM,23.2,7.3,51,29.87,10.0,WNW,9.2,19.6,N/A,,Clear,300,2013-02-18 13:55:00
7:15 AM,22.5,7.0,52,29.89,10.0,West,6.9,-,N/A,,Clear,270,2013-02-18 14:15:00
7:35 AM,22.8,6.8,50,29.91,10.0,WNW,10.4,-,N/A,,Clear,290,2013-02-18 14:35:00
7:55 AM,22.5,6.3,50,29.93,10.0,WNW,9.2,16.1,N/A,,Scattered Clouds,290,2013-02-18 14:55:00
8:15 AM,22.6,6.1,49,29.94,10.0,WSW,17.3,23.0,N/A,,Mostly Cloudy,250,2013-02-18 15:15:00
8:35 AM,23.0,6.1,48,29.94,10.0,West,13.8,-,N/A,,Scattered Clouds,270,2013-02-18 15:35:00
8:55 AM,23.7,7.2,49,29.95,10.0,West,13.8,-,N/A,,Clear,260,2013-02-18 15:55:00
9:15 AM,24.1,7.2,49,29.96,10.0,West,6.9,-,N/A,,Clear,260,2013-02-18 16:15:00
9:35 AM,24.8,8.4,50,29.97,10.0,Calm,Calm,-,N/A,,Clear,0,2013-02-18 16:35:00
9:55 AM,25.9,9.1,49,29.97,10.0,WSW,11.5,-,N/A,,Clear,250,2013-02-18 16:55:00
10:15 AM,26.6,8.6,47,29.97,10.0,West,11.5,-,N/A,,Clear,280,2013-02-18 17:15:00
10:35 AM,27.3,9.5,47,29.98,10.0,WSW,10.4,21.9,N/A,,Clear,250,2013-02-18 17:35:00
10:55 AM,28.2,9.1,45,29.98,10.0,WSW,15.0,-,N/A,,Clear,240,2013-02-18 17:55:00
11:15 AM,28.0,7.9,43,29.99,10.0,West,11.5,-,N/A,,Clear,260,2013-02-18 18:15:00
11:35 AM,28.4,7.3,41,29.99,10.0,West,20.7,28.8,N/A,,Clear,260,2013-02-18 18:35:00
11:55 AM,28.8,7.2,40,29.99,10.0,WSW,15.0,24.2,N/A,,Clear,240,2013-02-18 18:55:00
12:15 PM,29.3,3.2,33,29.98,10.0,WSW,20.7,27.6,N/A,,Clear,250,2013-02-18 19:15:00
12:35 PM,29.5,2.3,31,29.98,10.0,WSW,18.4,27.6,N/A,,Clear,250,2013-02-18 19:35:00
12:55 PM,30.4,3.6,32,29.97,10.0,WSW,18.4,-,N/A,,Clear,250,2013-02-18 19:55:00
1:15 PM,31.1,3.0,30,29.97,10.0,WSW,15.0,-,N/A,,Clear,250,2013-02-18 20:15:00
1:35 PM,31.1,3.4,31,29.97,10.0,SW,13.8,-,N/A,,Clear,230,2013-02-18 20:35:00
1:55 PM,31.5,2.5,29,29.98,10.0,WSW,16.1,25.3,N/A,,Clear,250,2013-02-18 20:55:00
2:15 PM,32.0,3.6,30,29.98,10.0,West,19.6,25.3,N/A,,Clear,280,2013-02-18 21:15:00
2:35 PM,32.0,4.8,32,29.98,10.0,WSW,18.4,24.2,N/A,,Clear,240,2013-02-18 21:35:00
2:55 PM,32.0,5.2,32,29.99,10.0,WSW,18.4,27.6,N/A,,Clear,250,2013-02-18 21:55:00
3:15 PM,32.0,5.0,32,29.99,10.0,West,18.4,26.5,N/A,,Clear,270,2013-02-18 22:15:00
3:35 PM,32.0,5.7,33,29.99,10.0,West,12.7,16.1,N/A,,Clear,260,2013-02-18 22:35:00
3:55 PM,32.0,3.9,31,30.00,10.0,West,13.8,20.7,N/A,,Clear,280,2013-02-18 22:55:00
4:35 PM,32.2,1.0,27,30.00,10.0,West,11.5,20.7,N/A,,Clear,280,2013-02-18 23:35:00
4:55 PM,32.0,-1.1,24,30.01,10.0,WSW,9.2,19.6,N/A,,Clear,250,2013-02-18 23:55:00
5:15 PM,31.8,-0.9,25,30.01,10.0,WSW,11.5,16.1,N/A,,Clear,240,2013-02-19 00:15:00
5:35 PM,30.6,-1.1,26,30.02,10.0,WSW,12.7,-,N/A,,Clear,240,2013-02-19 00:35:00
5:55 PM,30.7,-2.6,24,30.02,10.0,West,9.2,16.1,N/A,,Clear,260,2013-02-19 00:55:00
6:15 PM,28.2,-0.0,30,30.03,10.0,WSW,11.5,18.4,N/A,,Clear,240,2013-02-19 01:15:00
6:35 PM,26.4,0.5,33,30.03,10.0,WSW,11.5,-,N/A,,Clear,250,2013-02-19 01:35:00
6:55 PM,24.6,0.1,35,30.04,10.0,SW,6.9,-,N/A,,Clear,220,2013-02-19 01:55:00
7:15 PM,25.7,0.1,33,30.05,10.0,SSE,5.8,-,N/A,,Clear,150,2013-02-19 02:15:00
7:35 PM,26.1,1.2,34,30.06,10.0,SE,5.8,-,N/A,,Clear,140,2013-02-19 02:35:00
7:55 PM,27.3,-2.9,27,30.07,10.0,WSW,5.8,-,N/A,,Clear,240,2013-02-19 02:55:00
8:15 PM,27.5,-2.4,27,30.07,10.0,SW,4.6,-,N/A,,Clear,230,2013-02-19 03:15:00
8:35 PM,27.9,-2.2,27,30.08,10.0,SSE,5.8,-,N/A,,Clear,160,2013-02-19 03:35:00
8:55 PM,27.0,-0.8,30,30.09,10.0,WSW,8.1,18.4,N/A,,Clear,250,2013-02-19 03:55:00
9:15 PM,22.8,0.7,38,30.10,10.0,WSW,6.9,-,N/A,,Clear,240,2013-02-19 04:15:00
9:35 PM,23.0,-0.2,36,30.10,10.0,South,4.6,-,N/A,,Clear,190,2013-02-19 04:35:00
10:15 PM,14.9,1.4,55,30.11,10.0,South,6.9,-,N/A,,Clear,180,2013-02-19 05:15:00
10:35 PM,18.1,1.4,48,30.11,10.0,SSE,3.5,-,N/A,,Clear,150,2013-02-19 05:35:00
10:55 PM,16.3,1.9,53,30.11,10.0,Calm,Calm,-,N/A,,Clear,0,2013-02-19 05:55:00
11:15 PM,16.7,1.9,52,30.11,10.0,Calm,Calm,-,N/A,,Clear,0,2013-02-19 06:15:00
11:35 PM,14.5,3.2,61,30.11,10.0,SSE,5.8,-,N/A,,Clear,150,2013-02-19 06:35:00
11:55 PM,14.9,1.9,57,30.12,10.0,Calm,Calm,-,N/A,,Clear,0,2013-02-19 06:55:00